User: anonymous   Login
Location: Unspecified
(0.0000°N, 0.0000°E)
Time: 13:42:55
(UTC+02:00)
Language:

Cosmos 1933 - Orbit

View from above orbital plane
View from above orbital plane
View from above satellite
View from above satellite

Ground track
Ground track

The orbit data is extracted from the following two-line orbital elements,

1 18958U 88020A   14295.44422091  .00003123  00000-0  24254-3 0  4631
2 18958 082.5282 317.5714 0011234 342.1551 017.9277 15.00978103446067
Epoch (UTC): 22 October 2014 10:39:40
Eccentricity: 0.0011234
inclination: 82.5282°
perigee height: 556 km
apogee height: 571 km
right ascension of ascending node: 317.5714°
argument of perigee: 342.1551°
revolutions per day: 15.00978103
mean anomaly at epoch: 17.9277°
orbit number at epoch: 44606

The dashed part of the orbit path shows where the satellite is in the earth's shadow,  

DLR